Starlink 31915

decayed
NORAD ID: 59796 Int'l Des: 2024-093 Owner: SPXS Country: US Constellation: starlink
LEOCIRCULAR

关于 Starlink 31915

正在加载描述...

高度历史

Altitude vs Time

uPlot chart will show altitude changes over time

两行轨道根数

1 59796U 24093Q 24155.76002328 .26527668 92753-5 35333-2 0 9991
2 59796 42.9894 275.4640 0006538 334.8703 141.7133 16.34406060 3869
Epoch: Jun 3, 2024 • Age: 13443 hours

当前状态

Position data unavailable
发射日期 May 18, 2024
运行时间 1.5 years
衰减日期 Jun 3, 2024
类型 internet

技术详情

分类 Payload
质量 730.00 kg
干质量 700.00 kg
总质量 730.00 kg
长度 0.30 m
直径 4.10 m
跨度 29.00 m
形状 Box + pan
制造商 SPXS
平台类型 Starlink V2M
阶段状态 Unknown Transfer Status
所有者/国家 SPXS/US

大型星座

Loading constellations...